DW8694 Weather Reports


time (UTC)temp
C
wind
direction
speed
KPH
gust
KPH
rain 1hr
cm
rain 24hr
cm
rain mn
cm
humidity
%
barometer
mb
20260507174514 18 50 1.6 0.0 0.00 0.00 0.00 31 1007.9
20260507173011 18 294 1.6 0.0 0.00 0.00 0.00 31 1007.9
20260507171509 17 328 1.6 0.0 0.00 0.00 0.00 32 1007.8
20260507170005 17 339 1.6 0.0 0.00 0.00 0.00 32 1008.0
20260507164505 17 336 1.6 0.0 0.00 0.00 0.00 33 1008.0
20260507163002 17 311 1.6 0.0 0.00 0.00 0.00 33 1008.0
20260507161606 17 328 1.6 0.0 0.00 0.00 0.00 33 1008.0
20260507160053 16 347 1.6 0.0 0.00 0.00 0.00 36 1008.1
20260507154551 16 317 1.6 0.0 0.00 0.00 0.00 36 1008.1
20260507153050 16 265 1.6 0.0 0.00 0.00 0.00 37 1008.1
20260507151546 16 242 1.6 0.0 0.00 0.00 0.00 41 1008.0
20260507150043 15 229 1.6 0.0 0.00 0.00 0.00 43 1008.0
20260507144538 14 227 1.6 0.0 0.00 0.00 0.00 47 1008.1
20260507143054 13 252 1.6 0.0 0.00 0.00 0.00 52 1008.1
20260507141547 12 224 1.6 0.0 0.00 0.00 0.00 55 1008.1
20260507140028 12 250 1.6 0.0 0.00 0.00 0.00 57 1008.0
20260507134528 11 256 0.0 0.0 0.00 0.00 0.00 58 1007.9
20260507133027 11 240 1.6 0.0 0.00 0.00 0.00 60 1007.7
20260507131526 10 247 1.6 0.0 0.00 0.00 0.00 61 1007.7
20260507130036 10 229 1.6 0.0 0.00 0.00 0.00 62 1007.6
20260507124520 10 248 1.6 0.0 0.00 0.00 0.00 62 1007.5
20260507123018 10 240 1.6 0.0 0.00 0.00 0.00 62 1007.2
20260507121516 10 229 0.0 0.0 0.00 0.00 0.00 62 1007.2
20260507120011 10 245 0.0 0.0 0.00 0.00 0.00 61 1006.9
20260507114509 11 247 0.0 0.0 0.00 0.00 0.00 60 1006.8
20260507113008 11 245 0.0 0.0 0.00 0.00 0.00 59 1006.8
20260507111507 12 248 1.6 0.0 0.00 0.00 0.00 58 1006.7
20260507110007 12 234 1.6 0.0 0.00 0.00 0.00 57 1006.5
20260507104506 12 243 1.6 0.0 0.00 0.00 0.00 58 1006.3
20260507103005 11 202 0.0 0.0 0.00 0.00 0.00 61 1006.4
20260507101507 11 196 0.0 0.0 0.00 0.00 0.00 63 1006.4
20260507100007 11 196 0.0 0.0 0.00 0.00 0.00 62 1006.4
20260507094504 11 196 0.0 0.0 0.00 0.00 0.00 61 1006.3
20260507093004 11 196 0.0 0.0 0.00 0.00 0.00 62 1006.3
20260507091506 11 196 0.0 0.0 0.00 0.00 0.00 63 1006.3
20260507090002 11 196 0.0 0.0 0.00 0.00 0.00 62 1006.2
20260507084600 11 196 0.0 0.0 0.00 0.00 0.00 61 1006.1
20260507083058 12 196 0.0 0.0 0.00 0.00 0.00 60 1006.1
20260507081556 12 196 0.0 0.0 0.00 0.00 0.00 59 1006.2
20260507080107 12 196 0.0 0.0 0.00 0.00 0.00 58 1006.2
20260507074556 12 196 0.0 0.0 0.00 0.00 0.00 58 1006.4
20260507073053 12 196 0.0 0.0 0.00 0.00 0.00 58 1006.5
20260507071551 12 196 0.0 0.0 0.00 0.00 0.00 56 1006.2
20260507070101 12 196 0.0 0.0 0.00 0.00 0.00 54 1006.3
20260507064620 12 196 0.0 0.0 0.00 0.00 0.00 51 1006.5
20260507063052 12 196 0.0 0.0 0.00 0.00 0.00 52 1006.5
20260507061546 12 196 0.0 0.0 0.00 0.00 0.00 50 1006.5
20260507060108 12 196 0.0 0.0 0.00 0.00 0.00 50 1006.7
20260507054546 13 196 0.0 0.0 0.00 0.00 0.00 46 1007.1
20260507053040 13 196 0.0 0.0 0.00 0.00 0.00 46 1007.0
20260507051558 13 196 0.0 0.0 0.00 0.00 0.00 44 1007.0
20260507050045 14 196 0.0 0.0 0.00 0.00 0.00 45 1007.2
20260507044538 14 196 0.0 0.0 0.00 0.00 0.00 47 1007.0
20260507043041 15 193 0.0 0.0 0.00 0.00 0.00 48 1006.9
20260507041537 15 193 0.0 0.0 0.00 0.00 0.00 48 1006.8
20260507040036 15 206 0.0 0.0 0.00 0.00 0.00 47 1006.6
20260507034536 16 238 0.0 0.0 0.00 0.00 0.00 46 1006.4
20260507033036 16 238 0.0 0.0 0.00 0.00 0.00 44 1006.1
20260507031536 17 238 0.0 0.0 0.00 0.00 0.00 42 1005.8
20260507030036 17 241 3.2 0.0 0.00 0.00 0.00 39 1006.3
20260507024533 17 182 0.0 0.0 0.00 0.00 0.00 33 1006.3
20260507023031 17 174 0.0 0.0 0.00 0.00 0.00 30 1006.3
20260507021533 17 174 0.0 0.0 0.00 0.00 0.00 30 1006.1
20260507020034 18 174 0.0 0.0 0.00 0.00 0.00 29 1006.0
20260507014530 18 174 0.0 0.0 0.00 0.00 0.00 28 1005.9
20260507013029 18 174 0.0 0.0 0.00 0.00 0.00 27 1005.8
20260507011534 18 174 0.0 0.0 0.00 0.00 0.00 27 1005.6
20260507010043 18 98 1.6 0.0 0.00 0.00 0.00 27 1005.5
20260507004532 18 143 0.0 0.0 0.00 0.00 0.00 26 1005.6
20260507003028 18 105 0.0 0.0 0.00 0.00 0.00 27 1005.5
20260507001527 18 51 1.6 0.0 0.00 0.00 0.00 27 1005.5
20260507000026 18 31 1.6 0.0 0.00 0.00 0.00 26 1005.5
20260506234528 18 90 1.6 0.0 0.00 0.00 0.00 26 1005.4
20260506233025 19 113 0.0 0.0 0.00 0.00 0.00 26 1005.6
20260506231524 19 139 1.6 0.0 0.00 0.00 0.00 25 1005.5
20260506230026 20 119 0.0 0.0 0.00 0.00 0.00 25 1005.8
20260506224522 19 74 0.0 0.0 0.00 0.00 0.00 24 1005.8
20260506223020 19 107 1.6 0.0 0.00 0.00 0.00 25 1006.0
20260506221519 19 181 1.6 0.0 0.00 0.00 0.00 25 1006.1
20260506220018 19 64 1.6 0.0 0.00 0.00 0.00 24 1006.2
20260506214514 19 80 0.0 0.0 0.00 0.00 0.00 25 1006.6
20260506213010 18 34 1.6 0.0 0.00 0.00 0.00 25 1006.9
20260506211509 18 105 1.6 0.0 0.00 0.00 0.00 25 1007.1
20260506210007 18 101 0.0 0.0 0.00 0.00 0.00 24 1007.3
20260506204504 18 55 1.6 0.0 0.00 0.00 0.00 24 1007.3
20260506203001 17 157 1.6 0.0 0.00 0.00 0.00 26 1007.6
20260506201600 17 74 3.2 0.0 0.00 0.00 0.00 27 1007.8
20260506200057 17 125 1.6 0.0 0.00 0.00 0.00 26 1008.0
20260506194555 17 60 1.6 0.0 0.00 0.00 0.00 26 1008.0
20260506193052 17 128 1.6 0.0 0.00 0.00 0.00 27 1008.1
20260506191552 17 170 1.6 0.0 0.00 0.00 0.00 27 1008.4
20260506190048 16 72 3.2 0.0 0.00 0.00 0.00 28 1008.5
20260506184558 16 139 3.2 0.0 0.00 0.00 0.00 28 1008.9
20260506183042 16 111 3.2 0.0 0.00 0.00 0.00 28 1008.9
20260506181542 15 208 3.2 0.0 0.00 0.00 0.00 29 1009.0
20260506180040 15 213 3.2 0.0 0.00 0.00 0.00 30 1009.1